Location: Unspecified
(0.0000°N, 0.0000°E)
Time: 22:28:32
(UTC+00:00)

ISS - Visible Passes

Search period start: 22 September 2017 00:00
Search period end: 02 October 2017 00:00
Orbit: 401 x 407 km, 51.6° (Epoch: 23 September)

Date Brightness Start Highest point End Pass type
(mag) Time Alt. Az. Time Alt. Az. Time Alt. Az.
22 Sep -0.8 05:22:55 10° NNE 05:25:00 16° NE 05:27:05 10° E visible
22 Sep -1.4 18:32:28 10° WSW 18:35:10 24° NW 18:37:51 10° N visible
24 Sep -3.3 05:13:30 10° NNW 05:16:44 63° NE 05:19:59 10° SE visible
25 Sep -1.4 04:22:41 15° NNE 04:24:27 22° NE 04:27:03 10° ESE visible
26 Sep -2.8 05:06:37 17° WNW 05:08:24 28° SW 05:11:17 10° S visible
27 Sep -2.1 04:17:38 29° SSE 04:17:38 29° SSE 04:19:22 10° SE visible
